Location: Petruro
(41.0333°N, 14.7833°E)
Time: 14:38:30
(UTC+00:00)

Cosmos 1937 Rocket - Pass Details

Date: 20 June 2021
Orbit: 746 x 780 km, 74.0° (Epoch: 29 July)

Event Time Altitude Azimuth Distance (km) Brightness Sun altitude
Rises 00:28:22 0° 338° (NNW) 3,274 7.5 -22.5°
Reaches altitude 10° 00:30:46 10° 336° (NNW) 2,342 6.6 -22.3°
Maximum altitude 00:36:04 70° 254° (WSW) 827 3.4 -22.0°
Enters shadow 00:37:21 50° 190° (S) 984 3.6 -21.9°
